Cortez, CO

6:05 AM MDT on July 28, 2016 (GMT -0600)
Cortez Municipal

Weather History for KCEZ - February, 2013

Change the Weather History Date:

Monday, February 18, 2013

  Actual Average Record
Temperature  
Mean Temperature 31 °F 33 °F  
Max Temperature 42 °F 46 °F 64 °F (2016)
Min Temperature 19 °F 19 °F 12 °F (2008)
Degree Days  
Heating Degree Days 34 32  
Month to date heating degree days 626 614  
Since 1 July heating degree days 4481 4419  
Cooling Degree Days 0 0  
Month to date cooling degree days 0 0  
Year to date cooling degree days 0 0  
Moisture  
Dew Point 10 °F    
Average Humidity 47    
Maximum Humidity 77    
Minimum Humidity 17    
Precipitation  
Precipitation 0.00 in 0.04 in 0.25 in (2003)
Month to date precipitation 0.33 0.56  
Year to date precipitation 1.95 1.57  
Sea Level Pressure  
Sea Level Pressure 30.05 in    
Wind  
Wind Speed 7 mph (North)    
Max Wind Speed 28 mph    
Max Gust Speed 32 mph    
Visibility 10 miles    
Events      
T = Trace of Precipitation, MM = Missing Value Source: NWS Daily Summary

Daily Weather History Graph

Daily Weather History Graph

Search for Another Location

Airport or City:

Trip Planner

Search our weather history database for the weather conditions in past years. The results will help you decide how hot, cold, wet, or windy it might be!

Date:

Astronomy

Feb. 18, 2013 Rise Set
Actual Time 6:59 AM MST 5:57 PM MST
Civil Twilight 6:33 AM MST 6:24 PM MST
Nautical Twilight 6:02 AM MST 6:54 PM MST
Astronomical Twilight 5:32 AM MST 7:24 PM MST
Moon 11:49 AM MST (2/18) 1:38 AM MST (2/18)
Length of Visible Light 11h 51m
Length of Day
10h 58m
First Quarter, 59% of the Moon is Illuminated
Feb 18
First Quarter
Feb 25
Full
Mar 4
Last Quarter
Mar 11
New
Mar 19
First Quarter

Hourly Weather History & Observations

Time (MST) Temp. Windchill Dew Point Humidity Pressure Visibility Wind Dir Wind Speed Gust Speed Precip Events Conditions
12:53 AM 34.0 °F 26.6 °F 15.1 °F 46% 29.82 in 10.0 mi North 9.2 mph 17.3 mph N/A   Clear
1:53 AM 32.0 °F 20.8 °F 10.9 °F 42% 29.84 in 10.0 mi North 17.3 mph 24.2 mph N/A   Clear
2:53 AM 30.0 °F 16.9 °F 8.1 °F 40% 29.86 in 10.0 mi NNW 21.9 mph 29.9 mph N/A   Clear
3:53 AM 28.0 °F 14.9 °F 3.9 °F 36% 29.90 in 10.0 mi NNW 19.6 mph 28.8 mph N/A   Clear
4:53 AM 25.0 °F 17.1 °F 6.1 °F 45% 29.96 in 10.0 mi North 6.9 mph - N/A   Clear
5:53 AM 23.0 °F 12.4 °F 8.1 °F 53% 30.02 in 10.0 mi North 10.4 mph - N/A   Clear
6:53 AM 21.9 °F 14.5 °F 9.0 °F 58% 30.08 in 10.0 mi North 5.8 mph - N/A   Clear
7:53 AM 24.1 °F 19.7 °F 10.0 °F 55% 30.12 in 10.0 mi ESE 3.5 mph - N/A   Clear
8:53 AM 30.0 °F 24.1 °F 9.0 °F 41% 30.11 in 10.0 mi NNE 5.8 mph - N/A   Clear
9:53 AM 30.9 °F 26.2 °F 7.0 °F 37% 30.10 in 10.0 mi NNW 4.6 mph - N/A   Clear
10:53 AM 35.1 °F 28.6 °F 7.0 °F 31% 30.08 in 10.0 mi NNW 8.1 mph - N/A   Clear
11:53 AM 37.0 °F 31.6 °F 7.0 °F 29% 30.08 in 10.0 mi Variable 6.9 mph - N/A   Clear
12:53 PM 37.9 °F 32.7 °F 10.0 °F 32% 30.07 in 10.0 mi WNW 6.9 mph 16.1 mph N/A   Clear
1:53 PM 39.9 °F 34.5 °F 3.0 °F 21% 30.04 in 10.0 mi NW 8.1 mph - N/A   Clear
2:53 PM 42.1 °F 37.7 °F -0.9 °F 17% 30.04 in 10.0 mi NNW 6.9 mph - N/A   Clear
3:53 PM 41.0 °F 36.4 °F 8.1 °F 26% 30.05 in 10.0 mi West 6.9 mph - N/A   Clear
4:53 PM 39.0 °F 35.7 °F 10.9 °F 32% 30.08 in 10.0 mi West 4.6 mph - N/A   Clear
5:53 PM 35.1 °F - 10.0 °F 35% 30.09 in 10.0 mi Calm Calm - N/A   Clear
6:53 PM 30.0 °F 25.2 °F 17.1 °F 59% 30.13 in 10.0 mi East 4.6 mph - N/A   Clear
7:53 PM 26.1 °F 19.4 °F 17.1 °F 69% 30.14 in 10.0 mi ENE 5.8 mph - N/A   Clear
8:53 PM 25.0 °F 19.3 °F 16.0 °F 69% 30.12 in 10.0 mi East 4.6 mph - N/A   Clear
9:53 PM 21.9 °F 15.7 °F 15.1 °F 75% 30.14 in 10.0 mi ENE 4.6 mph - N/A   Clear
10:53 PM 21.0 °F 16.2 °F 14.0 °F 74% 30.13 in 10.0 mi ENE 3.5 mph - N/A   Clear
11:53 PM 19.9 °F - 14.0 °F 78% 30.10 in 10.0 mi Calm Calm - N/A   Clear